Home > Weather > Worcester > Past weeks

Flag for United Kingdom Past Weather in Worcester, England, United Kingdom — Yesterday and Last 2 Weeks

Now
66 °F

Scattered clouds.


Feels Like: 66 °F
Forecast: 49 / 63 °F
Wind: 22 mph from Southwest

Location: Staverton Private

Current Time: Jul 1, 2016 at 2:32:32 PM

Latest Report: Jul 1, 2016 at 1:50 PM


Visibility: N/A

Pressure: 29.74 "Hg

Humidity: 60%

Dew Point: 52 °F

Location of WorcesterLocation

Past Weather in Worcester — Graph

°F

Worcester Temperature Yesterday

Maximum temperature yesterday: 64 °F (at 10:20 AM)
Minimum temperature yesterday: 57 °F (at 6:50 AM)
Average temperature yesterday: 62 °F

High & Low Weather Summary for the Past Weeks

 TemperatureHumidityPressure
High70 °F (Jun 20, 3:50 PM)94% (Jun 17, 7:20 AM)30.24 "Hg (Jun 17, 7:20 AM)
Low55 °F (Jun 17, 7:20 AM)46% (Jun 27, 4:20 PM)29.53 "Hg (Jun 16, 4:50 PM)
Average63 °F77%29.95 "Hg
* Reported Jun 16 1:20 PM — Jul 1 1:20 PM, Worcester, Weather by CustomWeather, © 2016

Note: Actual official high and low records may vary slightly from our data, if they occured in-between our weather recording intervals... More about our weather records

Advertising

Worcester Weather History for the Previous 24 Hours

Scroll right to see more
 ConditionsComfort  
Time TempWeatherWind HumidityBarometerVisibility
1:20 PM
Fri, Jul 1
64 °FScattered clouds.15 mph64%29.74 "HgN/A
12:50 PM64 °FScattered clouds.12 mph64%29.74 "HgN/A
12:20 PM63 °FScattered clouds.13 mph68%29.74 "HgN/A
11:50 AM61 °FScattered clouds.14 mph72%29.74 "HgN/A
11:20 AM61 °FScattered clouds.14 mph72%29.77 "HgN/A
10:50 AM63 °FScattered clouds.14 mph68%29.77 "HgN/A
10:20 AM61 °FScattered clouds.9 mph72%29.77 "HgN/A
9:50 AM61 °FScattered clouds.10 mph83%29.77 "HgN/A
9:20 AM61 °FScattered clouds.10 mph77%29.74 "HgN/A
8:50 AM61 °FScattered clouds.8 mph83%29.77 "HgN/A
8:20 AM61 °FScattered clouds.9 mph83%29.77 "HgN/A
7:20 PM
Thu, Jun 30
61 °FScattered showers. Scattered clouds.8 mph83%29.77 "HgN/A
6:50 PM61 °FScattered showers. Scattered clouds.9 mph77%29.77 "HgN/A
6:20 PM61 °FScattered clouds.10 mph77%29.77 "HgN/A
5:50 PM63 °FScattered clouds.12 mph73%29.77 "HgN/A
5:20 PM63 °FScattered clouds.9 mph77%29.77 "HgN/A
4:50 PM64 °FScattered clouds.9 mph73%29.77 "HgN/A
4:20 PM64 °FPassing clouds.7 mph68%29.77 "HgN/A
3:50 PM63 °FSprinkles. Passing clouds.3 mph77%29.80 "HgN/A
3:20 PM63 °FSprinkles. Passing clouds.7 mph77%29.80 "HgN/A
2:50 PM63 °FPassing clouds.9 mph73%29.80 "HgN/A
2:20 PM64 °FPassing clouds.10 mph64%29.80 "HgN/A
Weather by CustomWeather, © 2016

See weather overviewHow to use our weather pages